KA2FNK Weather Reports


Display with metric or nautical units.
time (UTC)temp
F
wind
direction
speed
MPH
gust
MPH
rain 1hr
in
rain 24hr
in
rain mn
in
humidity
%
barometer
mb
20260504081742 64 216 2.0 6.0 0.00 0.00 0.00 56 1004.6
20260504081241 64 203 3.0 3.0 0.00 0.00 0.00 56 1004.7
20260504080740 64 226 0.0 0.0 0.00 0.00 0.00 56 1004.8
20260504080239 64 226 0.0 3.0 0.00 0.00 0.00 56 1004.8
20260504070227 66 233 1.0 6.0 0.00 0.00 0.00 51 1005.7
20260504060215 64 240 0.0 2.0 0.00 0.00 0.00 56 1006.5
20260504050704 64 189 0.0 0.0 0.00 0.00 0.00 62 1007.3
20260504050203 64 189 0.0 0.0 0.00 0.00 0.00 61 1007.3
20260504045702 65 189 0.0 0.0 0.00 0.00 0.00 60 1007.3
20260504045201 65 189 0.0 0.0 0.00 0.00 0.00 60 1007.2
20260504044700 65 189 0.0 0.0 0.00 0.00 0.00 60 1007.2
20260504044159 65 189 0.0 0.0 0.00 0.00 0.00 59 1007.3
20260504043658 65 189 0.0 0.0 0.00 0.00 0.00 57 1007.3
20260504043157 65 189 0.0 0.0 0.00 0.00 0.00 59 1007.3
20260504042656 65 189 0.0 0.0 0.00 0.00 0.00 59 1007.4
20260504042155 66 189 0.0 0.0 0.00 0.00 0.00 58 1007.4
20260504041654 66 189 0.0 0.0 0.00 0.00 0.00 57 1007.3
20260504041153 66 189 0.0 0.0 0.00 0.00 0.00 58 1007.3
20260504040652 65 189 0.0 0.0 0.00 0.00 0.00 59 1007.1
20260504040151 65 189 0.0 0.0 0.00 0.00 0.00 58 1007.2
20260504035650 65 189 0.0 0.0 0.00 0.00 0.00 59 1007.2
20260504035149 65 189 0.0 0.0 0.00 0.00 0.00 58 1007.2
20260504034648 66 189 0.0 0.0 0.00 0.00 0.00 59 1007.2
20260504034147 66 189 0.0 0.0 0.00 0.00 0.00 56 1007.3
20260504033646 66 189 0.0 0.0 0.00 0.00 0.00 56 1007.3
20260504033145 66 189 0.0 0.0 0.00 0.00 0.00 56 1007.5
20260504032644 67 189 0.0 0.0 0.00 0.00 0.00 55 1007.5
20260504032143 67 189 0.0 0.0 0.00 0.00 0.00 55 1007.5
20260504031642 67 189 0.0 0.0 0.00 0.00 0.00 54 1007.5
20260504031141 67 189 0.0 0.0 0.00 0.00 0.00 54 1007.4
20260504030640 67 189 0.0 0.0 0.00 0.00 0.00 54 1007.4
20260504030139 67 189 0.0 0.0 0.00 0.00 0.00 54 1007.4
20260504025638 68 189 0.0 0.0 0.00 0.00 0.00 54 1007.5
20260504025137 68 189 0.0 0.0 0.00 0.00 0.00 52 1007.5
20260504024636 68 189 0.0 0.0 0.00 0.00 0.00 53 1007.5
20260504024135 69 189 0.0 0.0 0.00 0.00 0.00 52 1007.4
20260504023634 69 189 0.0 0.0 0.00 0.00 0.00 51 1007.4
20260504023133 68 189 0.0 0.0 0.00 0.00 0.00 49 1007.4
20260504022632 68 189 0.0 0.0 0.00 0.00 0.00 56 1007.4
20260504022131 67 189 0.0 0.0 0.00 0.00 0.00 52 1007.2
20260504021630 68 189 0.0 0.0 0.00 0.00 0.00 54 1007.3
20260504021129 68 189 0.0 0.0 0.00 0.00 0.00 54 1007.3
20260504020628 68 189 0.0 0.0 0.00 0.00 0.00 54 1007.4
20260504020127 69 189 0.0 0.0 0.00 0.00 0.00 52 1007.4
20260504015626 69 189 0.0 0.0 0.00 0.00 0.00 52 1007.4
20260504015125 69 189 0.0 0.0 0.00 0.00 0.00 51 1007.4
20260504014624 69 189 0.0 0.0 0.00 0.00 0.00 51 1007.3
20260504014123 70 189 0.0 0.0 0.00 0.00 0.00 50 1007.4
20260504013622 70 189 0.0 0.0 0.00 0.00 0.00 50 1007.2
20260504013121 71 189 0.0 0.0 0.00 0.00 0.00 49 1007.3
20260504012620 71 189 0.0 0.0 0.00 0.00 0.00 48 1007.3
20260504012120 71 189 0.0 0.0 0.00 0.00 0.00 47 1007.4
20260504011618 72 189 0.0 0.0 0.00 0.00 0.00 47 1007.4
20260504011117 72 189 0.0 0.0 0.00 0.00 0.00 45 1007.4
20260504010616 73 189 0.0 0.0 0.00 0.00 0.00 45 1007.4
20260504010115 73 189 0.0 0.0 0.00 0.00 0.00 44 1007.4
20260504005614 73 189 0.0 0.0 0.00 0.00 0.00 44 1007.3
20260504005113 74 189 0.0 0.0 0.00 0.00 0.00 43 1007.3
20260504004612 74 189 0.0 0.0 0.00 0.00 0.00 43 1007.3
20260504004111 74 189 0.0 0.0 0.00 0.00 0.00 43 1007.3
20260504003610 74 189 0.0 0.0 0.00 0.00 0.00 41 1007.2
20260504003109 75 189 0.0 0.0 0.00 0.00 0.00 1007.3
20260504002608 75 189 0.0 0.0 0.00 0.00 0.00 41 1007.4
20260504002107 75 189 0.0 0.0 0.00 0.00 0.00 41 1007.4
20260504001606 75 189 0.0 0.0 0.00 0.00 0.00 40 1007.5
20260504001105 76 189 0.0 0.0 0.00 0.00 0.00 40 1007.6
20260504000604 76 189 0.0 0.0 0.00 0.00 0.00 39 1007.6
20260503235602 76 189 0.0 0.0 0.00 0.00 0.00 39 1007.6
20260503235101 77 189 0.0 0.0 0.00 0.00 0.00 38 1007.8
20260503234600 77 189 0.0 0.0 0.00 0.00 0.00 37 1007.7
20260503234059 77 189 0.0 0.0 0.00 0.00 0.00 37 1007.7
20260503233558 77 189 0.0 0.0 0.00 0.00 0.00 36 1007.7
20260503233058 78 189 0.0 0.0 0.00 0.00 0.00 35 1007.7
20260503232557 78 189 0.0 0.0 0.00 0.00 0.00 34 1007.8
20260503232409 79 189 0.0 0.0 0.00 0.00 0.00 33 1007.9
20260503232055 78 189 0.0 0.0 0.00 0.00 0.00 34 1007.9
20260503231554 78 189 0.0 0.0 0.00 0.00 0.00 36 1007.9
20260503231053 79 189 0.0 0.0 0.00 0.00 0.00 35 1007.9
20260503230552 79 189 0.0 0.0 0.00 0.00 0.00 33 1007.9
20260503230051 79 189 0.0 0.0 0.00 0.00 0.00 34 1007.9
20260503225550 79 189 0.0 0.0 0.00 0.00 0.00 33 1007.9
20260503225049 80 189 0.0 0.0 0.00 0.00 0.00 32 1007.8
20260503224548 80 189 0.0 0.0 0.00 0.00 0.00 33 1007.8
20260503224047 80 189 0.0 0.0 0.00 0.00 0.00 33 1007.9
20260503223546 80 189 0.0 0.0 0.00 0.00 0.00 32 1007.9
20260503223045 80 189 0.0 0.0 0.00 0.00 0.00 31 1008.0
20260503222544 80 189 0.0 5.0 0.00 0.00 0.00 32 1008.0
20260503222043 80 284 3.0 6.0 0.00 0.00 0.00 33 1008.0
20260503221543 81 293 0.0 4.0 0.00 0.00 0.00 31 1008.1
20260503221041 81 271 0.0 7.0 0.00 0.00 0.00 31 1008.1
20260503220540 80 285 0.0 7.0 0.00 0.00 0.00 31 1008.2
20260503220039 81 285 0.0 7.0 0.00 0.00 0.00 32 1008.2
20260503215539 81 334 1.0 9.0 0.00 0.00 0.00 31 1008.3
20260503215038 81 300 3.0 6.0 0.00 0.00 0.00 31 1008.3
20260503214536 81 212 0.0 1.0 0.00 0.00 0.00 30 1008.3
20260503214035 81 212 0.0 8.0 0.00 0.00 0.00 32 1008.4
20260503213534 81 260 0.0 7.0 0.00 0.00 0.00 29 1008.5
20260503213033 81 264 0.0 12.0 0.00 0.00 0.00 30 1008.5
20260503212532 81 129 0.0 7.0 0.00 0.00 0.00 31 1008.5
20260503212031 81 265 0.0 4.0 0.00 0.00 0.00 32 1008.6
20260503211530 81 274 6.0 6.0 0.00 0.00 0.00 31 1008.7
20260503211029 81 262 0.0 5.0 0.00 0.00 0.00 31 1008.8
20260503210529 81 267 0.0 8.0 0.00 0.00 0.00 30 1008.8
20260503210027 80 241 5.0 9.0 0.00 0.00 0.00 31 1008.9
20260503205526 80 262 0.0 10.0 0.00 0.00 0.00 31 1009.0
20260503205025 80 307 0.0 7.0 0.00 0.00 0.00 31 1009.0
20260503204524 80 261 5.0 7.0 0.00 0.00 0.00 32 1009.2
20260503204024 80 213 0.0 5.0 0.00 0.00 0.00 33 1009.2
20260503203523 80 306 0.0 5.0 0.00 0.00 0.00 34 1009.3
20260503203021 80 344 0.0 7.0 0.00 0.00 0.00 32 1009.3
20260503202520 80 270 2.0 9.0 0.00 0.00 0.00 34 1009.4
20260503202019 80 285 0.0 10.0 0.00 0.00 0.00 32 1009.6
20260503201518 80 281 3.0 9.0 0.00 0.00 0.00 32 1009.7
20260503201017 80 182 0.0 7.0 0.00 0.00 0.00 34 1009.7
20260503200516 80 236 7.0 12.0 0.00 0.00 0.00 40 1009.8
20260503200015 80 220 0.0 2.0 0.00 0.00 0.00 39 1009.8
20260503195514 79 255 0.0 4.0 0.00 0.00 0.00 39 1010.0
20260503195013 79 201 2.0 11.0 0.00 0.00 0.00 39 1010.0
20260503194513 79 282 0.0 5.0 0.00 0.00 0.00 38 1010.2
20260503194012 79 244 0.0 8.0 0.00 0.00 0.00 37 1010.1
20260503193510 78 191 0.0 3.0 0.00 0.00 0.00 37 1010.2
20260503193010 78 212 2.0 13.0 0.00 0.00 0.00 39 1010.3
20260503192509 78 306 2.0 11.0 0.00 0.00 0.00 37 1010.4
20260503192008 78 255 6.0 11.0 0.00 0.00 0.00 37 1010.5
20260503191507 78 243 0.0 7.0 0.00 0.00 0.00 39 1010.6
20260503191006 78 226 5.0 10.0 0.00 0.00 0.00 39 1010.6
20260503190504 77 196 5.0 7.0 0.00 0.00 0.00 37 1010.7
20260503190003 77 172 1.0 8.0 0.00 0.00 0.00 38 1010.7
20260503185503 77 160 0.0 1.0 0.00 0.00 0.00 41 1010.7
20260503185002 77 261 8.0 8.0 0.00 0.00 0.00 41 1010.8
20260503184500 77 229 0.0 7.0 0.00 0.00 0.00 39 1010.9
20260503184000 77 260 1.0 8.0 0.00 0.00 0.00 43 1010.9
20260503183459 76 243 1.0 11.0 0.00 0.00 0.00 42 1011.0
20260503182957 76 215 0.0 9.0 0.00 0.00 0.00 39 1011.1
20260503182457 76 212 8.0 9.0 0.00 0.00 0.00 40 1011.3
20260503181955 76 219 0.0 7.0 0.00 0.00 0.00 40 1011.2
20260503181455 76 247 5.0 13.0 0.00 0.00 0.00 40 1011.4
20260503180953 75 232 1.0 11.0 0.00 0.00 0.00 39 1011.4
20260503180452 75 222 6.0 8.0 0.00 0.00 0.00 39 1011.5
20260503175952 75 271 0.0 12.0 0.00 0.00 0.00 40 1011.5
20260503175450 74 220 5.0 16.0 0.00 0.00 0.00 43 1011.6
20260503174949 74 289 6.0 11.0 0.00 0.00 0.00 42 1011.6
20260503174448 74 185 5.0 6.0 0.00 0.00 0.00 43 1011.6
20260503173947 74 253 3.0 16.0 0.00 0.00 0.00 43 1011.7
20260503173446 73 257 1.0 17.0 0.00 0.00 0.00 43 1011.8
20260503172945 73 230 0.0 5.0 0.00 0.00 0.00 44 1011.8
20260503172445 72 236 1.0 8.0 0.00 0.00 0.00 44 1011.9
20260503171943 72 240 5.0 9.0 0.00 0.00 0.00 44 1011.9
20260503171440 72 209 8.0 10.0 0.00 0.00 0.00 43 1012.0
20260503170940 72 250 6.0 9.0 0.00 0.00 0.00 44 1012.1
20260503170438 72 257 3.0 11.0 0.00 0.00 0.00 44 1012.2
20260503150915 66 216 3.0 13.0 0.00 0.00 0.00 50 1012.8
20260503150415 65 275 7.0 11.0 0.00 0.00 0.00 52 1013.0
20260503131352 56 202 3.0 11.0 0.00 0.00 0.00 57 1014.1
20260503130851 56 149 4.0 12.0 0.00 0.00 0.00 57 1014.1
20260503130350 55 198 1.0 16.0 0.00 0.00 0.00 58 1014.0
20260503110827 52 232 7.0 15.0 0.00 0.00 0.00 53 1014.1
20260503110326 53 184 8.0 8.0 0.00 0.00 0.00 55 1014.1